Date String (YYYY-MM-DD hh:mm:ss) UTC,Instrument flags,absolute air pressure of the measurement (hPa),sample flow rate (lpm),inlet stack bypass flow (lpm),air temperature of the measurement (°C),ambient temperature measured by the external sensor (°C),aerosol sample conditioner tube jacket temperature (°C),OPC LED temperature (°C),internal box temperature (°C),relative humidity of the measurement (%),span deviation,mass concentration of particles derived from Lorenz-Mie calculation of OPC scattering (μg/m³),mass concentration of particles derived from Lorenz-Mie calculation of OPC scattering (μg/m³),mass concentration of particles derived from Lorenz-Mie calculation of OPC scattering (μg/m³)
DateTimeUTC,F1_M11,P_M11,Q1_M11,Q2_M11,T1_M11,T2_M11,T3_M11,T4_M11,T5_M11,U1_M11,ZSPAN_M11,X0_M11,X2_M11,X1_M11
2024-04-09 18:00:00,SystemResetWarning,0828.5,5.01,000.00,022.0,021.3,000.0,030.4,023.7,016.2,0000.0,0015.97,0004.07,0003.30
2024-04-09 18:01:00,SystemResetWarning,0828.4,5.00,000.00,022.0,021.3,000.0,030.4,023.7,016.3,0000.0,0013.63,0004.10,0003.31
2024-04-09 18:02:00,SystemResetWarning,0828.4,4.99,000.00,022.0,021.3,000.0,030.4,023.7,016.2,0000.0,0013.46,0004.09,0003.32
2024-04-09 18:03:00,SystemResetWarning,0828.4,4.99,000.00,022.0,021.3,000.0,030.4,023.8,016.0,0000.0,0013.68,0004.07,0003.33
2024-04-09 18:04:00,SystemResetWarning,0828.4,4.99,000.00,022.0,021.3,000.0,030.4,023.8,016.0,0000.0,0013.87,0004.07,0003.34
2024-04-09 18:05:00,SystemResetWarning,0828.4,5.00,000.00,022.0,021.3,000.0,030.4,023.8,016.4,0000.0,0013.19,0004.06,0003.35
2024-04-09 18:06:00,SystemResetWarning,0828.4,5.00,000.00,022.0,021.4,000.0,030.4,023.8,016.4,0000.0,0012.75,0004.08,0003.36
2024-04-09 18:07:00,SystemResetWarning,0828.4,5.01,000.00,022.0,021.4,000.0,030.4,023.8,016.5,0000.0,0013.40,0004.11,0003.37
2024-04-09 18:08:00,SystemResetWarning,0828.4,5.00,000.00,022.0,021.4,000.0,030.4,023.8,016.5,0000.0,0013.77,0004.11,0003.38
2024-04-09 18:09:00,SystemResetWarning,0828.4,5.00,000.00,022.0,021.4,000.0,030.4,023.8,016.6,0000.0,0013.69,0004.11,0003.39
2024-04-09 18:10:00,SystemResetWarning,0828.4,5.00,000.00,022.0,021.4,000.0,030.4,023.8,016.5,0000.0,0013.40,0004.11,0003.41
2024-04-09 18:11:00,SystemResetWarning,0828.4,5.00,000.00,022.1,021.4,000.0,030.4,023.9,016.6,0000.0,0012.94,0004.12,0003.42
2024-04-09 18:12:00,SystemResetWarning,0828.3,4.99,000.00,022.1,021.5,000.0,030.4,023.9,016.7,0000.0,0013.57,0004.12,0003.43
2024-04-09 18:13:00,SystemResetWarning,0828.4,5.00,000.00,022.1,021.5,000.0,030.4,023.9,017.0,0000.0,0013.72,0004.17,0003.45
2024-04-09 18:14:00,SystemResetWarning,0828.3,4.99,000.00,022.1,021.5,000.0,030.4,023.9,016.8,0000.0,0014.46,0004.22,0003.48
2024-04-09 18:15:00,SystemResetWarning,0828.3,5.00,000.00,022.1,021.5,000.0,030.5,023.9,016.6,0000.0,0014.21,0004.29,0003.53
2024-04-09 18:16:00,SystemResetWarning,0828.3,5.01,000.00,022.1,021.5,000.0,030.5,023.9,016.5,0000.0,0014.17,0004.30,0003.56
2024-04-09 18:17:00,SystemResetWarning,0828.3,5.01,000.00,022.1,021.5,000.0,030.5,023.9,016.6,0000.0,0014.03,0004.28,0003.59
2024-04-09 18:18:00,SystemResetWarning,0828.3,5.00,000.00,022.1,021.5,000.0,030.5,023.9,016.6,0000.0,0013.27,0004.29,0003.61
2024-04-09 18:19:00,SystemResetWarning,0828.3,5.00,000.00,022.1,021.5,000.0,030.5,023.9,016.6,0000.0,0012.78,0004.31,0003.64
2024-04-09 18:20:00,SystemResetWarning,0828.2,5.00,000.00,022.1,021.5,000.0,030.5,023.9,016.8,0000.0,0013.11,0004.35,0003.67
2024-04-09 18:21:00,SystemResetWarning,0828.2,5.00,000.00,022.1,021.5,000.0,030.5,023.9,017.1,0000.0,0013.55,0004.35,0003.69
2024-04-09 18:22:00,SystemResetWarning,0828.3,5.00,000.00,022.1,021.5,000.0,030.5,023.9,017.0,0000.0,0012.86,0004.39,0003.72
2024-04-09 18:23:00,SystemResetWarning,0828.3,5.00,000.00,022.1,021.5,000.0,030.5,023.9,016.7,0000.0,0012.00,0004.38,0003.74
2024-04-09 18:24:00,SystemResetWarning,0828.2,4.99,000.00,022.1,021.5,000.0,030.5,023.9,016.5,0000.0,0011.45,0004.38,0003.77
2024-04-09 18:25:00,SystemResetWarning,0828.2,5.00,000.00,022.1,021.5,000.0,030.5,023.9,016.6,0000.0,0010.59,0004.41,0003.81
2024-04-09 18:26:00,SystemResetWarning,0828.2,5.00,000.00,022.1,021.5,000.0,030.5,023.9,016.4,0000.0,0011.40,0004.45,0003.82
2024-04-09 18:27:00,SystemResetWarning,0828.2,5.00,000.00,022.1,021.5,000.0,030.5,023.9,016.5,0000.0,0011.78,0004.55,0003.85
2024-04-09 18:28:00,SystemResetWarning,0828.2,5.00,000.00,022.1,021.5,000.0,030.5,023.9,016.4,0000.0,0012.38,0004.59,0003.87
2024-04-09 18:29:00,SystemResetWarning,0828.1,5.00,000.00,022.2,021.5,000.0,030.5,023.9,016.6,0000.0,0012.84,0004.60,0003.88
2024-04-09 18:30:00,SystemResetWarning,0828.1,5.00,000.00,022.2,021.6,000.0,030.5,024.0,016.4,0000.0,0012.94,0004.62,0003.88
2024-04-09 18:31:00,SystemResetWarning,0828.1,5.01,000.00,022.2,021.6,000.0,030.5,024.0,016.3,0000.0,0013.75,0004.63,0003.87
2024-04-09 18:32:00,SystemResetWarning,0828.0,5.01,000.00,022.2,021.6,000.0,030.5,024.0,015.7,0000.0,0014.65,0004.63,0003.86
2024-04-09 18:33:00,SystemResetWarning,0828.1,5.01,000.00,022.2,021.6,000.0,030.6,024.0,015.4,0000.0,0015.45,0004.62,0003.84
2024-04-09 18:34:00,SystemResetWarning,0828.1,4.99,000.00,022.2,021.7,000.0,030.6,024.1,015.7,0000.0,0015.52,0004.63,0003.82
2024-04-09 18:35:00,SystemResetWarning,0828.0,5.00,000.00,022.2,021.7,000.0,030.6,024.1,015.6,0000.0,0016.16,0004.62,0003.80
2024-04-09 18:36:00,SystemResetWarning,0828.0,4.99,000.00,022.3,021.7,000.0,030.6,024.1,015.8,0000.0,0016.45,0004.63,0003.78
2024-04-09 18:37:00,SystemResetWarning,0827.9,5.01,000.00,022.3,021.7,000.0,030.6,024.1,016.2,0000.0,0015.86,0004.59,0003.75
2024-04-09 18:38:00,SystemResetWarning,0828.0,5.00,000.00,022.3,021.8,000.0,030.6,024.1,016.4,0000.0,0015.22,0004.53,0003.71
2024-04-09 18:39:00,SystemResetWarning,0828.0,5.01,000.00,022.3,021.8,000.0,030.6,024.1,015.9,0000.0,0015.25,0004.53,0003.70
2024-04-09 18:40:00,SystemResetWarning,0828.1,5.00,000.00,022.3,021.8,000.0,030.6,024.1,015.6,0000.0,0015.64,0004.55,0003.69
2024-04-09 18:41:00,SystemResetWarning,0828.0,5.01,000.00,022.3,021.8,000.0,030.6,024.1,015.5,0000.0,0015.82,0004.54,0003.69
2024-04-09 18:42:00,SystemResetWarning,0828.0,5.00,000.00,022.3,021.8,000.0,030.7,024.2,015.1,0000.0,0014.33,0004.48,0003.70
2024-04-09 18:43:00,SystemResetWarning,0828.1,4.98,000.00,022.4,021.8,000.0,030.7,024.2,014.9,0000.0,0013.33,0004.48,0003.71
2024-04-09 18:44:00,SystemResetWarning,0828.0,5.00,000.00,022.4,021.8,000.0,030.7,024.2,015.1,0000.0,0013.11,0004.48,0003.71
2024-04-09 18:45:00,SystemResetWarning,0827.9,5.01,000.00,022.4,021.8,000.0,030.7,024.2,015.1,0000.0,0013.21,0004.46,0003.73
2024-04-09 18:46:00,SystemResetWarning,0827.8,5.01,000.00,022.4,021.9,000.0,030.7,024.2,015.2,0000.0,0013.27,0004.50,0003.75
2024-04-09 18:47:00,SystemResetWarning,0827.8,4.99,000.00,022.4,021.9,000.0,030.7,024.2,015.2,0000.0,0013.06,0004.49,0003.76
2024-04-09 18:48:00,SystemResetWarning,0827.8,4.99,000.00,022.4,022.0,000.0,030.7,024.3,015.3,0000.0,0012.72,0004.46,0003.78
2024-04-09 18:49:00,SystemResetWarning,0827.8,5.00,000.00,022.5,022.0,000.0,030.7,024.3,015.2,0000.0,0012.41,0004.46,0003.80
2024-04-09 18:50:00,SystemResetWarning,0827.8,5.01,000.00,022.5,022.0,000.0,030.7,024.3,015.1,0000.0,0012.11,0004.44,0003.82
2024-04-09 18:51:00,SystemResetWarning,0827.8,5.00,000.00,022.5,022.1,000.0,030.8,024.3,015.1,0000.0,0011.70,0004.41,0003.82
2024-04-09 18:52:00,SystemResetWarning,0827.8,5.00,000.00,022.5,022.1,000.0,030.8,024.4,015.0,0000.0,0011.50,0004.41,0003.81
2024-04-09 18:53:00,SystemResetWarning,0827.8,5.01,000.00,022.6,022.1,000.0,030.8,024.4,014.9,0000.0,0011.32,0004.42,0003.80
2024-04-09 18:54:00,SystemResetWarning,0827.7,5.00,000.00,022.6,022.2,000.0,030.8,024.4,015.0,0000.0,0011.11,0004.43,0003.80
2024-04-09 18:55:00,SystemResetWarning,0827.7,5.01,000.00,022.6,022.2,000.0,030.8,024.4,015.1,0000.0,0010.73,0004.44,0003.79
2024-04-09 18:56:00,SystemResetWarning,0827.7,5.00,000.00,022.6,022.2,000.0,030.8,024.5,015.4,0000.0,0010.93,0004.45,0003.78
2024-04-09 18:57:00,SystemResetWarning,0827.7,4.99,000.00,022.6,022.3,000.0,030.9,024.5,015.6,0000.0,0010.73,0004.43,0003.77
2024-04-09 18:58:00,SystemResetWarning,0827.7,5.00,000.00,022.7,022.3,000.0,030.9,024.5,015.1,0000.0,0011.65,0004.42,0003.76
2024-04-09 18:59:00,SystemResetWarning,0827.7,5.00,000.00,022.7,022.3,000.0,030.9,024.5,014.9,0000.0,0011.77,0004.44,0003.76
